This is the latest recevied weather packets stored in our database for station/object KC9MWQ-13. If no packets are shown the sender has not sent any weather packets the latest 10 day(s).
| Time | Temp. | Humidity | Pressure | Rain* | Wind** | Luminosity | Snow |
|---|---|---|---|---|---|---|---|
| 1777943878 | 21.11° C | 60% | 1003.1 hPa | 0 mm | - | 0 W/m² | - |
| 1777943575 | 21.11° C | 59% | 1003.3 hPa | 0 mm | - | 0 W/m² | - |
| 1777943270 | 21.11° C | 60% | 1003.3 hPa | 0 mm | - | 0 W/m² | - |
| 1777942966 | 21.67° C | 58% | 1003.2 hPa | 0 mm | - | 0 W/m² | - |
| 1777942663 | 21.67° C | 58% | 1003.3 hPa | 0 mm | - | 0 W/m² | - |
| 1777942354 | 21.67° C | 59% | 1003.2 hPa | 0 mm | - | 0 W/m² | - |
| 1777942051 | 21.67° C | 59% | 1003.1 hPa | 0 mm | - | 0 W/m² | - |
| 1777941747 | 21.67° C | 57% | 1003.1 hPa | 0 mm | - | 0 W/m² | - |
| 1777941445 | 21.67° C | 58% | 1003.2 hPa | 0 mm | - | 0 W/m² | - |
| 1777941143 | 21.67° C | 56% | 1003.2 hPa | 0 mm | - | 0 W/m² | - |
| 1777940838 | 22.22° C | 56% | 1003.2 hPa | 0 mm | - | 0 W/m² | - |
| 1777940536 | 22.22° C | 55% | 1003 hPa | 0 mm | - | 2 W/m² | - |
| 1777940234 | 22.22° C | 55% | 1003.2 hPa | 0 mm | - | 4 W/m² | - |
| 1777939931 | 22.22° C | 58% | 1002.8 hPa | 0 mm | - | 10 W/m² | - |
| 1777939628 | 22.22° C | 57% | 1002.9 hPa | 0 mm | - | 17 W/m² | - |
| 1777939326 | 22.22° C | 59% | 1002.7 hPa | 0 mm | - | 27 W/m² | - |
| 1777939022 | 21.67° C | 64% | 1002.8 hPa | 0 mm | - | 27 W/m² | - |
| 1777938718 | 21.67° C | 66% | 1002.9 hPa | 0 mm | - | 39 W/m² | - |
| 1777938416 | 21.67° C | 67% | 1002.8 hPa | 0 mm | - | 53 W/m² | - |
| 1777938113 | 21.67° C | 68% | 1003.1 hPa | 0 mm | - | 39 W/m² | - |
| 1777937808 | 21.67° C | 68% | 1003.1 hPa | 0 mm | - | 37 W/m² | - |
| 1777937504 | 21.67° C | 67% | 1003.3 hPa | 0 mm | - | 50 W/m² | - |
| 1777937203 | 21.67° C | 68% | 1003.3 hPa | 0 mm | - | 58 W/m² | - |
| 1777936899 | 21.67° C | 67% | 1003.3 hPa | 0 mm | - | 50 W/m² | - |
| 1777936597 | 21.67° C | 67% | 1003.4 hPa | 0 mm | - | 47 W/m² | - |
* Rain latest hour (hover to see other rain measurements)
** Current wind speed in m/s (hover to see current wind gust speed)